Tracking 25693 objects as of 30-Jun-2022
HD Live streaming from Space Station
objects crossing your sky now

STARLINK-2456

Track STARLINK-2456 now!
10-day predictions
STARLINK-2456 is classified as:


NORAD ID: 47846
Int'l Code: 2021-018BM
Perigee: 553.3 km
Apogee: 555.5 km
Inclination: 53.1 °
Period: 95.6 minutes
Semi major axis: 6925 km
RCS: Unknown
Launch date: March 11, 2021
Source: United States (US)
Launch site: AIR FORCE EASTERN TEST RANGE (AFETR)
aabbcc
Your satellite tracking list
Your tracking list is empty




NASA's NSSDC Master Catalog

Two Line Element Set (TLE):
1 47846U 21018BM  22181.27639139  .00000387  00000-0  44930-4 0  9997
2 47846  53.0546 184.8752 0001648  61.5556 298.5599 15.06385150 73412
Source of the keplerian elements: AFSPC